"2010-08-10 00:00:00",57901,8.02,204.1,3.303,0.507,17.17,106.7495,16.55,17.53,65.1,0,110.5,13.29,17.36,166.1
"2010-08-10 00:00:30",57902,8.35,202,3.455,0.403,14.32,106.7441,16.54,17.53,66.67,0,110.5,13.29,17.35,164.0
"2010-08-10 00:01:00",57903,8.62,206.6,7.278,0.41,3.401,106.7565,16.57,17.51,66.05,0,110.5,13.29,17.38,168.6
"2010-08-10 00:01:30",57904,8.31,215.9,3.511,0.267,16.96,106.7292,16.5,17.51,69.41,0,110.5,13.29,17.31,177.9
"2010-08-10 00:02:00",57905,8.47,209,4.541,0.317,-8.37,106.694,16.41,17.45,67.72,0,110.5,13.29,17.22,171.0
"2010-08-10 00:02:30",57906,9.5,220.7,6.926,1.318,-11.91,106.6929,16.41,17.57,69.05,0,110.5,13.26,17.22,182.7
"2010-08-10 00:03:00",57907,10.26,228.3,8.96,1.225,21.16,106.6813,16.38,17.59,67.81,0,110.5,13.26,17.19,190.3
"2010-08-10 00:03:30",57908,8.81,217.7,6.379,1.275,21.47,106.6968,16.42,17.55,65.96,0,110.5,13.26,17.23,179.7
"2010-08-10 00:04:00",57909,9.79,221.1,5.726,1.591,19.46,106.7275,16.5,17.44,65.45,0,110.5,13.26,17.31,183.1
"2010-08-10 00:04:30",57910,8.6,219.3,6.243,1.633,18.6,106.756,16.57,17.65,65.52,0,110.5,13.26,17.38,181.3
"2010-08-10 00:05:00",57911,7.897,221.1,6.938,1.473,13.47,106.772,16.61,17.73,65.61,0,110.5,13.26,17.42,183.1
"2010-08-10 00:05:30",57912,7.969,219.9,8.07,1.42,13.31,106.7954,16.67,17.53,65.3,0,110.5,13.26,17.48,181.9
"2010-08-10 00:06:00",57913,6.761,211.8,2.016,0.274,18.56,106.8109,16.71,17.55,65.23,0,110.5,13.29,17.52,173.8
"2010-08-10 00:06:30",57914,6.701,208.4,1.877,0.172,17.93,106.8289,16.76,17.58,64.93,0,110.5,13.29,17.57,170.4
"2010-08-10 00:07:00",57915,6.589,205.3,1.152,0.112,18.05,106.8292,16.76,17.61,64.69,0,110.5,13.29,17.57,167.3
"2010-08-10 00:07:30",57916,7.709,205.9,7.042,1.249,20.29,106.8304,16.76,17.72,64.71,0,110.5,13.26,17.57,167.9
"2010-08-10 00:08:00",57917,8.24,202.7,6.721,1.399,20.63,106.8298,16.76,17.78,64.79,0,110.5,13.26,17.57,164.7
"2010-08-10 00:08:30",57918,6.995,195.2,1.238,0.103,18.6,106.838,16.78,17.66,64.57,0,110.5,13.29,17.59,157.2
"2010-08-10 00:09:00",57919,6.908,195.4,1.08,0.133,18.65,106.8517,16.82,17.68,64.53,0,110.5,13.29,17.63,157.4
"2010-08-10 00:09:30",57920,6.928,196.9,1.664,0.127,16.48,106.8698,16.86,17.69,64.58,0,110.5,13.29,17.67,158.9
"2010-08-10 00:10:00",57921,6.764,196.7,1.288,0.112,19.01,106.8748,16.87,17.72,64.64,0,110.5,13.29,17.69,158.7
"2010-08-10 00:10:30",57922,7.735,199.5,6.228,1.291,20.46,106.8843,16.9,17.78,64.61,0,110.5,13.26,17.71,161.5
"2010-08-10 00:11:00",57923,8.49,205.6,6.269,1.338,22.8,106.9135,16.97,18.04,64.57,0,110.5,13.26,17.78,167.6
"2010-08-10 00:11:30",57924,8.9,205.2,6.821,1.136,23.99,106.92,16.99,18.01,64.41,0,110.5,13.26,17.80,167.2
"2010-08-10 00:12:00",57925,7.853,201.3,6.866,1.36,22.5,106.9618,17.1,18.09,64.15,0,110.5,13.26,17.91,163.3
"2010-08-10 00:12:30",57926,7.637,201.9,7.397,1.308,21.87,106.9841,17.15,18.05,63.93,0,110.5,13.25,17.97,163.9
"2010-08-10 00:13:00",57927,6.971,194.1,0.645,0.193,17.24,106.9934,17.18,17.94,63.58,0,110.5,13.29,17.99,156.1
"2010-08-10 00:13:30",57928,6.909,192.1,1.649,0.125,19.71,106.9945,17.18,17.97,63.35,0,110.5,13.29,17.99,154.1
"2010-08-10 00:14:00",57929,6.984,190.5,1.44,0.125,17.81,107.0243,17.26,17.99,62.95,0,110.5,13.29,18.07,152.5
"2010-08-10 00:14:30",57930,6.959,193.5,2.566,0.141,18.09,107.0565,17.34,18.06,62.14,0,110.5,13.29,18.15,155.5
"2010-08-10 00:15:00",57931,6.431,198.5,2.049,0.243,20.42,107.1102,17.48,18.15,60.81,0,110.5,13.3,18.29,160.5
"2010-08-10 00:15:30",57932,6.148,200.5,1.524,0.114,20.48,107.1649,17.62,18.25,59.67,0,110.5,13.3,18.43,162.5
"2010-08-10 00:16:00",57933,5.867,201.1,1.542,0.119,20.22,107.221,17.76,18.38,59.09,0,110.5,13.31,18.58,163.1
"2010-08-10 00:16:30",57934,5.651,199.8,1.066,0.124,19.89,107.2635,17.87,18.48,58.7,0,110.5,13.31,18.69,161.8
"2010-08-10 00:17:00",57935,6.011,201.2,5.718,1.002,21.12,107.2988,17.96,18.69,58.3,0,110.5,13.27,18.78,163.2
"2010-08-10 00:17:30",57936,6.06,199.5,6.663,0.979,20.74,107.3239,18.03,18.77,58.18,0,110.5,13.27,18.84,161.5
"2010-08-10 00:18:00",57937,6.869,206.8,7.321,1.369,22.21,107.3391,18.06,18.76,57.66,0,110.5,13.27,18.88,168.8
"2010-08-10 00:18:30",57938,6.084,205.2,6.692,1.241,21.34,107.3625,18.12,18.91,57.23,0,110.5,13.27,18.94,167.2
"2010-08-10 00:19:00",57939,6.427,207.9,7.246,1.433,21.73,107.3723,18.15,18.92,57.03,0,110.5,13.27,18.97,169.9
"2010-08-10 00:19:30",57940,6.082,209.4,5.912,1.346,21.58,107.3873,18.19,18.97,56.69,0,110.5,13.26,19.00,171.4
"2010-08-10 00:20:00",57941,5.989,214,6.339,1.285,21.97,107.4062,18.24,19.04,56.23,0,110.5,13.27,19.05,176.0
"2010-08-10 00:20:30",57942,5.397,217.1,6.301,0.9,21.21,107.4171,18.26,19.13,55.98,0,110.5,13.27,19.08,179.1
"2010-08-10 00:21:00",57943,6.209,223.7,6.339,1.318,21.84,107.4394,18.32,19.04,55.61,0,110.5,13.27,19.14,185.7
"2010-08-10 00:21:30",57944,6.587,225.4,7.069,1.393,22.66,107.44,18.32,19.19,56.22,0,110.5,13.27,19.14,187.4
"2010-08-10 00:22:00",57945,6.487,226.4,6.898,1.324,16.91,107.4222,18.28,19.2,57,0,110.5,13.27,19.09,188.4
"2010-08-10 00:22:30",57946,6.298,223.6,5.374,1.056,15.39,107.3799,18.17,19.15,59.33,0,110.4,13.27,18.98,185.6
"2010-08-10 00:23:00",57947,7.794,231.1,6.193,1.337,10.81,107.2875,17.93,18.96,60.77,0,110.5,13.27,18.75,193.1
"2010-08-10 00:23:30",57948,7.249,238.1,7.63,1.406,19.58,107.1542,17.59,18.89,62.02,0,110.5,13.27,18.40,200.1
"2010-08-10 00:24:00",57949,7.1,237,2.723,0.678,15.35,107.0108,17.22,18.55,63.83,0,110.5,13.27,18.04,199.0
"2010-08-10 00:24:30",57950,7.473,239.9,2.866,0.284,13.52,106.9178,16.98,18.43,64.72,0,110.5,13.3,17.80,201.9
"2010-08-10 00:25:00",57951,8.35,243.6,6.891,1.299,15.57,106.849,16.81,18.25,65.79,0,110.5,13.27,17.62,205.6
"2010-08-10 00:25:30",57952,8.65,243.1,7.349,1.337,19.04,106.7825,16.64,18.23,66.97,0,110.5,13.26,17.45,205.1
"2010-08-10 00:26:00",57953,9.81,248.3,6.084,1.128,19.87,106.7275,16.5,18.11,68,0,110.5,13.26,17.31,210.3
"2010-08-10 00:26:30",57954,10.03,248.7,6.003,1.3,18.99,106.6841,16.39,17.97,68.88,0,110.5,13.26,17.19,210.7
"2010-08-10 00:27:00",57955,9.2,239.8,4.07,0.817,18.02,106.6447,16.28,17.72,69.59,0,110.5,13.26,17.09,201.8
"2010-08-10 00:27:30",57956,13.01,252.7,7.105,1.559,20.14,106.5942,16.16,17.63,71.5,0,110.5,13.26,16.96,214.7
"2010-08-10 00:28:00",57957,12.82,248.5,5.21,1.258,18.77,106.5469,16.03,17.5,72.36,0,110.5,13.26,16.84,210.5
"2010-08-10 00:28:30",57958,13.42,247.1,5.431,1.464,10.93,106.5055,15.93,17.22,72.33,0,110.5,13.26,16.74,209.1
"2010-08-10 00:29:00",57959,11.92,248.8,3.037,0.843,8.47,106.4638,15.82,17.09,73.08,0,110.5,13.29,16.63,210.8
"2010-08-10 00:29:30",57960,11.05,244.5,4.794,0.45,11.01,106.4336,15.74,16.99,72.79,0,110.5,13.29,16.55,206.5
"2010-08-10 00:30:00",57961,10.14,237.7,2.505,0.824,4.749,106.4254,15.72,16.89,72.76,0,110.5,13.29,16.53,199.7
"2010-08-10 00:30:30",57962,9.12,245.2,2.062,0.179,15.93,106.4547,15.8,16.85,69.02,0,110.5,13.3,16.60,207.2
"2010-08-10 00:31:00",57963,8.93,248.1,0.854,0.146,13.7,106.4931,15.9,16.86,68.4,0,110.5,13.3,16.70,210.1
"2010-08-10 00:31:30",57964,8.59,249.3,0.753,0.211,18.12,106.5246,15.98,16.88,69.19,0,110.5,13.31,16.78,211.3
"2010-08-10 00:32:00",57965,8.85,250.5,1.322,0.419,20.48,106.5407,16.02,16.92,69.45,0,110.5,13.31,16.83,212.5
"2010-08-10 00:32:30",57966,9.47,251.5,0.806,0.126,17.23,106.5607,16.07,16.95,69.31,0,110.5,13.31,16.88,213.5
"2010-08-10 00:33:00",57967,9.57,250.7,0.788,0.103,19.84,106.5658,16.08,16.97,69.82,0,110.5,13.31,16.89,212.7
"2010-08-10 00:33:30",57968,9.57,249,1.458,0.218,19.37,106.5917,16.15,17,70.21,0,110.5,13.32,16.96,211.0
"2010-08-10 00:34:00",57969,9.68,241.8,1.35,0.338,19.71,106.6157,16.21,17.03,66.04,0,110.5,13.32,17.02,203.8
"2010-08-10 00:34:30",57970,9.99,241.1,1.074,0.193,19.34,106.6703,16.35,17.09,65.08,0,110.5,13.32,17.16,203.1
"2010-08-10 00:35:00",57971,9.73,239.8,1.034,0.363,19.32,106.7211,16.48,17.17,64.24,0,110.5,13.32,17.29,201.8
"2010-08-10 00:35:30",57972,9.52,243.1,1.923,0.335,19.1,106.7797,16.63,17.27,63.56,0,110.5,13.32,17.44,205.1
"2010-08-10 00:36:00",57973,9.35,241.8,2.314,0.309,19.12,106.8315,16.76,17.39,62.33,0,110.5,13.32,17.57,203.8
"2010-08-10 00:36:30",57974,8.82,243.2,2.687,0.344,19.09,106.8879,16.91,17.5,61.55,0,110.5,13.32,17.72,205.2
"2010-08-10 00:37:00",57975,9.07,242.7,1.517,0.236,19.21,106.9505,17.07,17.63,60.67,0,110.5,13.32,17.88,204.7
"2010-08-10 00:37:30",57976,9.1,241,1.818,0.325,19.19,107.0079,17.22,17.76,60.28,0,110.5,13.32,18.03,203.0
"2010-08-10 00:38:00",57977,9.13,246.6,1.343,0.172,19.2,107.0606,17.35,17.88,59.87,0,110.5,13.32,18.16,208.6
"2010-08-10 00:38:30",57978,9.07,248.6,2.1,0.202,19.21,107.1156,17.49,18.03,59.08,0,110.5,13.32,18.30,210.6
"2010-08-10 00:39:00",57979,9.44,251.7,0.601,0.096,19.27,107.1624,17.61,18.15,58.53,0,110.5,13.32,18.43,213.7
"2010-08-10 00:39:30",57980,9.27,252.9,1.065,0.208,19.28,107.2128,17.74,18.26,58.13,0,110.5,13.31,18.55,214.9
"2010-08-10 00:40:00",57981,9.1,253,1.427,0.329,19.41,107.2633,17.87,18.39,57.67,0,110.5,13.32,18.68,215.0
"2010-08-10 00:40:30",57982,9.54,253.3,1.064,0.193,19.4,107.3154,18,18.52,57.12,0,110.5,13.32,18.82,215.3
"2010-08-10 00:41:00",57983,8.93,254.1,0.934,0.228,19.42,107.3619,18.12,18.64,56.66,0,110.5,13.32,18.94,216.1
"2010-08-10 00:41:30",57984,8.71,254.3,1.204,0.212,19.5,107.4166,18.26,18.76,56.25,0,110.5,13.32,19.08,216.3
"2010-08-10 00:42:00",57985,8.37,252.1,1.361,0.16,19.38,107.4636,18.38,18.87,55.8,0,110.5,13.31,19.20,214.1
"2010-08-10 00:42:30",57986,7.987,253.8,1.509,0.135,19.34,107.5093,18.5,18.99,55.17,0,110.5,13.31,19.32,215.8
"2010-08-10 00:43:00",57987,8.09,257,1.193,0.123,19.38,107.5457,18.59,19.1,54.8,0,110.5,13.31,19.41,219.0
"2010-08-10 00:43:30",57988,7.772,257.4,0.994,0.143,19.23,107.5775,18.68,19.2,54.32,0,110.5,13.31,19.49,219.4
"2010-08-10 00:44:00",57989,6.818,257.7,0.957,0.527,19.1,107.6077,18.75,19.29,54.05,0,110.5,13.31,19.57,219.7
"2010-08-10 00:44:30",57990,6.725,256.8,0.837,0.195,19.14,107.6229,18.79,19.37,53.77,0,110.5,13.3,19.61,218.8
"2010-08-10 00:45:00",57991,7.001,254,2.205,0.259,19.38,107.6446,18.85,19.44,53.47,0,110.5,13.3,19.67,216.0
"2010-08-10 00:45:30",57992,7.376,251.6,1.635,0.346,19.43,107.675,18.93,19.5,53.06,0,110.5,13.3,19.74,213.6
"2010-08-10 00:46:00",57993,7.175,255.4,2.545,0.168,19.45,107.7035,19,19.58,52.8,0,110.5,13.3,19.82,217.4
"2010-08-10 00:46:30",57994,7.351,259.2,1.007,0.177,19.46,107.7288,19.06,19.64,52.76,0,110.5,13.3,19.88,221.2
"2010-08-10 00:47:00",57995,7.043,259.4,1.276,0.236,19.46,107.7474,19.11,19.73,52.51,0,110.5,13.3,19.93,221.4
"2010-08-10 00:47:30",57996,7.205,258.7,1.01,0.119,19.5,107.7759,19.18,19.78,52.18,0,110.5,13.31,20.00,220.7
"2010-08-10 00:48:00",57997,7.159,258.9,0.824,0.177,19.5,107.7885,19.22,19.84,51.73,0,110.5,13.31,20.04,220.9
"2010-08-10 00:48:30",57998,6.937,260.6,1.589,0.093,19.5,107.8102,19.27,19.9,51.32,0,110.5,13.31,20.09,222.6
"2010-08-10 00:49:00",57999,6.794,262.4,0.965,0.178,19.47,107.8258,19.31,19.96,51.08,0,110.5,13.31,20.13,224.4
"2010-08-10 00:49:30",58000,6.744,263.5,0.948,0.122,19.47,107.8352,19.34,20.01,50.96,0,110.5,13.31,20.16,225.5
"2010-08-10 00:50:00",58001,6.419,263.4,0.784,0.079,19.35,107.8363,19.34,20.07,50.81,0,110.6,13.31,20.16,225.4
"2010-08-10 00:50:30",58002,6.533,264.3,0.937,0.177,19.37,107.8419,19.35,20.1,50.66,0,110.6,13.31,20.17,226.3
"2010-08-10 00:51:00",58003,6.619,263.2,1.524,0.177,19.53,107.8539,19.38,20.13,50.31,0,110.6,13.31,20.20,225.2
"2010-08-10 00:51:30",58004,6.679,262.5,0.75,0.182,19.55,107.8519,19.38,20.16,49.97,0,110.6,13.31,20.20,224.5
"2010-08-10 00:52:00",58005,6.984,261,1.37,0.207,19.65,107.8666,19.42,20.18,49.64,0,110.6,13.31,20.24,223.0
"2010-08-10 00:52:30",58006,6.961,259.7,0.925,0.168,19.62,107.8785,19.45,20.24,49.43,0,110.6,13.3,20.27,221.7
"2010-08-10 00:53:00",58007,7.224,257.9,1.178,0.104,19.64,107.8894,19.48,20.25,49.14,0,110.6,13.3,20.30,219.9
"2010-08-10 00:53:30",58008,6.945,256.9,0.514,0.1,19.61,107.9108,19.53,20.31,48.94,0,110.6,13.3,20.35,218.9
"2010-08-10 00:54:00",58009,6.726,257.3,0.435,0.065,19.51,107.92,19.55,20.33,48.74,0,110.6,13.3,20.37,219.3
"2010-08-10 00:54:30",58010,6.572,258.2,0.459,0.039,19.6,107.9446,19.62,20.37,48.67,0,110.6,13.3,20.44,220.2
"2010-08-10 00:55:00",58011,6.538,258.4,0.576,0.042,19.57,107.9446,19.62,20.41,48.57,0,110.6,13.3,20.44,220.4
"2010-08-10 00:55:30",58012,6.549,259.8,0.571,0.065,19.44,107.9505,19.63,20.44,48.49,0,110.6,13.3,20.45,221.8
"2010-08-10 00:56:00",58013,6.418,260.7,0.918,0.083,19.19,107.9744,19.69,20.46,48.44,0,110.6,13.3,20.51,222.7
"2010-08-10 00:56:30",58014,6.439,262.8,0.544,0.05,19.18,107.9784,19.7,20.48,48.29,0,110.6,13.3,20.53,224.8
"2010-08-10 00:57:00",58015,6.528,261,0.644,0.062,19.31,107.9789,19.71,20.5,47.99,0,110.6,13.3,20.53,223.0
"2010-08-10 00:57:30",58016,6.625,259.6,0.58,0.062,19.39,108.0077,19.78,20.55,47.64,0,110.6,13.3,20.60,221.6
"2010-08-10 00:58:00",58017,6.547,260.3,0.324,0.035,19.42,108.0271,19.83,20.57,47.54,0,110.6,13.3,20.65,222.3
"2010-08-10 00:58:30",58018,6.667,261.8,0.606,0.114,19.42,108.0457,19.88,20.61,47.38,0,110.6,13.29,20.70,223.8
"2010-08-10 00:59:00",58019,6.993,263.3,0.761,0.083,19.33,108.0527,19.89,20.65,47.3,0,110.6,13.29,20.72,225.3
"2010-08-10 00:59:30",58020,7.099,262.9,0.959,0.078,19.3,108.0787,19.96,20.7,47.28,0,110.6,13.29,20.78,224.9
"2010-08-10 01:00:00",58021,6.873,260.3,0.68,0.076,19.37,108.078,19.96,20.71,47.08,0,110.6,13.29,20.78,222.3
"2010-08-10 01:00:30",58022,6.878,260,0.489,0.044,19.4,108.0824,19.97,20.76,46.91,0,110.6,13.29,20.79,222.0
"2010-08-10 01:01:00",58023,6.944,260.8,0.812,0.055,19.36,108.0993,20.01,20.78,46.86,0,110.6,13.29,20.84,222.8
"2010-08-10 01:01:30",58024,6.835,260.8,0.534,0.05,19.26,108.0871,19.98,20.81,47.19,0,110.7,13.28,20.80,222.8
"2010-08-10 01:02:00",58025,6.668,263,0.532,0.093,19.23,108.0936,20,20.84,47.34,0,110.7,13.28,20.82,225.0
"2010-08-10 01:02:30",58026,6.506,261.7,0.744,0.078,19.3,108.1067,20.03,20.87,47.21,0,110.7,13.28,20.86,223.7
"2010-08-10 01:03:00",58027,6.491,260.8,1.451,0.093,19.32,108.1108,20.04,20.88,47.1,0,110.7,13.28,20.87,222.8
"2010-08-10 01:03:30",58028,6.556,260.4,0.861,0.081,19.29,108.1108,20.04,20.9,47.14,0,110.7,13.28,20.87,222.4
"2010-08-10 01:04:00",58029,6.724,261.5,1.352,0.087,19.24,108.1241,20.08,20.92,47.31,0,110.7,13.29,20.90,223.5
"2010-08-10 01:04:30",58030,6.567,264.7,0.628,0.081,19.17,108.141,20.12,20.94,47.25,0,110.7,13.29,20.94,226.7
"2010-08-10 01:05:00",58031,6.649,265.9,0.535,0.123,19.18,108.1444,20.13,20.96,47.3,0,110.7,13.29,20.95,227.9
"2010-08-10 01:05:30",58032,6.634,265.7,0.502,0.089,19.2,108.1446,20.13,20.94,47.12,0,110.7,13.29,20.95,227.7
"2010-08-10 01:06:00",58033,6.443,265.6,0.878,0.119,19.22,108.1446,20.13,20.97,46.82,0,110.7,13.29,20.95,227.6
"2010-08-10 01:06:30",58034,6.352,262.8,0.788,0.106,19.21,108.1446,20.13,20.99,47.42,0,110.7,13.29,20.95,224.8
"2010-08-10 01:07:00",58035,6.695,260.7,0.709,0.12,19.26,108.1446,20.13,20.99,47.15,0,110.7,13.28,20.95,222.7
"2010-08-10 01:07:30",58036,7.047,263.2,0.777,0.113,19.04,108.1446,20.13,21,47.26,0,110.7,13.28,20.95,225.2
"2010-08-10 01:08:00",58037,6.932,262.5,1.323,0.114,18.77,108.1378,20.11,20.99,47.82,0,110.7,13.28,20.94,224.5
"2010-08-10 01:08:30",58038,6.963,264.3,0.705,0.121,19.3,108.1071,20.03,20.96,47.16,0,110.7,13.28,20.86,226.3
"2010-08-10 01:09:00",58039,6.734,262.4,0.67,0.083,19.37,108.1256,20.08,20.96,46.64,0,110.7,13.28,20.90,224.4
"2010-08-10 01:09:30",58040,6.582,261.9,0.528,0.114,19.36,108.1322,20.1,20.95,46.68,0,110.7,13.28,20.92,223.9
"2010-08-10 01:10:00",58041,6.57,260.7,0.858,0.206,19.43,108.136,20.11,20.99,46.37,0,110.7,13.28,20.93,222.7
"2010-08-10 01:10:30",58042,6.738,258.8,1.065,0.076,19.54,108.1507,20.15,21,46.4,0,110.7,13.28,20.97,220.8
"2010-08-10 01:11:00",58043,6.709,259.4,0.726,0.065,19.44,108.172,20.2,21.03,46.22,0,110.7,13.28,21.02,221.4
"2010-08-10 01:11:30",58044,6.619,259.1,0.753,0.06,19.44,108.1774,20.21,21.07,46.78,0,110.7,13.28,21.04,221.1
"2010-08-10 01:12:00",58045,6.578,259.7,0.659,0.068,19.5,108.2038,20.28,21.1,46.45,0,110.7,13.28,21.11,221.7
"2010-08-10 01:12:30",58046,6.546,258.8,0.571,0.072,19.57,108.2162,20.31,21.14,46.27,0,110.8,13.28,21.14,220.8
"2010-08-10 01:13:00",58047,6.678,260.1,0.951,0.09,19.53,108.2401,20.38,21.16,46.23,0,110.8,13.28,21.20,222.1
"2010-08-10 01:13:30",58048,6.592,261.8,1.37,0.092,19.56,108.2441,20.39,21.21,46.19,0,110.8,13.28,21.21,223.8
"2010-08-10 01:14:00",58049,6.304,264.7,0.984,0.079,19.6,108.2672,20.45,21.23,45.96,0,110.8,13.28,21.27,226.7
"2010-08-10 01:14:30",58050,6.422,266.2,0.663,0.081,19.71,108.277,20.47,21.26,46.37,0,110.8,13.28,21.29,228.2
"2010-08-10 01:15:00",58051,6.401,267.2,0.864,0.103,19.73,108.277,20.47,21.28,46.1,0,110.8,13.27,21.29,229.2
"2010-08-10 01:15:30",58052,6.447,266.4,0.756,0.08,19.73,108.277,20.47,21.29,45.77,0,110.8,13.27,21.29,228.4
"2010-08-10 01:16:00",58053,6.384,266.3,1.101,0.119,19.73,108.2832,20.49,21.32,45.5,0,110.8,13.27,21.31,228.3
"2010-08-10 01:16:30",58054,6.358,266.8,0.591,0.147,19.78,108.308,20.55,21.33,45.22,0,110.8,13.27,21.37,228.8
"2010-08-10 01:17:00",58055,5.861,266.5,1.011,0.163,19.85,108.3108,20.56,21.36,45.4,0,110.8,13.27,21.38,228.5
"2010-08-10 01:17:30",58056,5.821,267.4,0.885,0.094,19.96,108.3221,20.59,21.38,44.99,0,110.8,13.27,21.41,229.4
"2010-08-10 01:18:00",58057,5.944,268.3,0.749,0.067,20.02,108.3405,20.63,21.4,44.89,0,110.8,13.26,21.46,230.3
"2010-08-10 01:18:30",58058,5.961,269,0.869,0.144,20.02,108.344,20.64,21.42,44.82,0,110.8,13.26,21.47,231.0
"2010-08-10 01:19:00",58059,5.781,267.8,1.742,0.122,20,108.3434,20.64,21.43,44.72,0,110.8,13.26,21.46,229.8
"2010-08-10 01:19:30",58060,5.448,266.1,0.88,0.081,20.08,108.3545,20.67,21.45,44.14,0,110.8,13.26,21.49,228.1
"2010-08-10 01:20:00",58061,5.072,268,1.719,0.127,20.07,108.372,20.71,21.48,44.01,0,110.8,13.26,21.54,230.0
"2010-08-10 01:20:30",58062,5.23,269.2,0.859,0.075,20,108.3701,20.71,21.51,44.07,0,110.8,13.26,21.53,231.2
"2010-08-10 01:21:00",58063,5.104,268.3,0.67,0.072,19.89,108.3826,20.74,21.52,44.05,0,110.8,13.26,21.57,230.3
"2010-08-10 01:21:30",58064,5.044,267.4,0.587,0.057,19.8,108.3897,20.76,21.53,44.13,0,110.8,13.26,21.58,229.4
"2010-08-10 01:22:00",58065,4.98,266.3,0.767,0.059,19.77,108.3905,20.76,21.58,44.09,0,110.8,13.26,21.59,228.3
"2010-08-10 01:22:30",58066,5.253,264.6,0.637,0.152,19.76,108.3877,20.75,21.58,44.13,0,110.8,13.26,21.58,226.6
"2010-08-10 01:23:00",58067,5.53,262.5,0.98,0.189,19.8,108.3792,20.73,21.59,44.16,0,110.8,13.26,21.56,224.5
"2010-08-10 01:23:30",58068,5.857,263.1,0.743,0.036,19.63,108.3758,20.72,21.6,44.64,0,110.8,13.26,21.55,225.1
"2010-08-10 01:24:00",58069,5.907,263.6,0.98,0.075,19.53,108.3719,20.71,21.61,45.81,0,110.8,13.26,21.54,225.6
"2010-08-10 01:24:30",58070,5.906,263.6,0.635,0.043,19.61,108.3426,20.64,21.59,46.34,0,110.8,13.26,21.46,225.6
"2010-08-10 01:25:00",58071,5.582,260.4,1.322,0.121,19.82,108.3415,20.64,21.56,45.67,0,110.8,13.26,21.46,222.4
"2010-08-10 01:25:30",58072,5.214,259,0.811,0.088,19.86,108.3418,20.64,21.53,44.83,0,110.8,13.26,21.46,221.0
"2010-08-10 01:26:00",58073,5.186,259.9,1.155,0.141,19.75,108.3418,20.64,21.53,45.23,0,110.8,13.26,21.46,221.9
"2010-08-10 01:26:30",58074,5.338,258.5,0.817,0.066,19.84,108.3418,20.64,21.54,45.23,0,110.8,13.26,21.46,220.5
"2010-08-10 01:27:00",58075,5.284,258.8,1.018,0.112,19.76,108.3418,20.64,21.52,45.78,0,110.8,13.26,21.46,220.8
"2010-08-10 01:27:30",58076,5.056,255.7,0.974,0.129,19.91,108.3418,20.64,21.54,44.96,0,110.8,13.26,21.46,217.7
"2010-08-10 01:28:00",58077,5.243,254.4,0.696,0.088,19.75,108.3457,20.65,21.54,45.25,0,110.8,13.26,21.47,216.4
"2010-08-10 01:28:30",58078,5.221,255.1,1.158,0.103,19.77,108.3581,20.68,21.53,45.07,0,110.8,13.26,21.50,217.1
"2010-08-10 01:29:00",58079,4.85,254.3,0.779,0.112,19.86,108.3668,20.7,21.55,44.98,0,110.8,13.26,21.53,216.3
"2010-08-10 01:29:30",58080,4.649,255.3,1.11,0.078,20.03,108.3755,20.72,21.56,44.51,0,110.8,13.26,21.55,217.3
"2010-08-10 01:30:00",58081,4.347,250.2,1.273,0.056,20.09,108.3755,20.72,21.57,44.41,0,110.8,13.26,21.55,212.2
"2010-08-10 01:30:30",58082,4.385,247.9,2.653,0.123,20.07,108.4017,20.79,21.6,44.27,0,110.8,13.26,21.61,209.9
"2010-08-10 01:31:00",58083,4.624,251.5,1.216,0.04,19.87,108.409,20.81,21.62,44.29,0,110.8,13.26,21.63,213.5
"2010-08-10 01:31:30",58084,4.667,245,1.612,0.046,20,108.4093,20.81,21.63,44.63,0,110.8,13.26,21.63,207.0
"2010-08-10 01:32:00",58085,4.755,241.5,0.928,0.056,20.12,108.4078,20.81,21.65,44.28,0,110.8,13.26,21.63,203.5
"2010-08-10 01:32:30",58086,4.719,238.6,0.898,0.055,20.07,108.4222,20.84,21.66,44.97,0,110.8,13.25,21.67,200.6
"2010-08-10 01:33:00",58087,4.531,235.3,1.197,0.07,20.24,108.4399,20.89,21.67,44.41,0,110.8,13.25,21.71,197.3
"2010-08-10 01:33:30",58088,4.383,230.5,1.565,0.041,20.26,108.4425,20.89,21.7,43.58,0,110.8,13.25,21.72,192.5
"2010-08-10 01:34:00",58089,4.492,229.6,0.671,0.054,20.39,108.4684,20.96,21.72,41.48,0,110.8,13.25,21.79,191.6
"2010-08-10 01:34:30",58090,4.388,228,0.722,0.045,20.37,108.4845,21,21.77,41.65,0,110.8,13.25,21.83,190.0
"2010-08-10 01:35:00",58091,4.405,227.3,1.027,0.102,20.23,108.5073,21.06,21.8,43.57,0,110.8,13.25,21.89,189.3
"2010-08-10 01:35:30",58092,4.54,229.9,1.151,0.056,20.1,108.5033,21.05,21.83,43.94,0,110.8,13.25,21.88,191.9
"2010-08-10 01:36:00",58093,4.568,232.7,0.99,0.111,19.96,108.4806,20.99,21.84,43.38,0,110.8,13.25,21.82,194.7
"2010-08-10 01:36:30",58094,4.585,228.9,1.912,0.054,20,108.4659,20.96,21.82,43.39,0,110.8,13.25,21.78,190.9
"2010-08-10 01:37:00",58095,4.502,225.2,1.424,0.112,20.1,108.4637,20.95,21.81,43.89,0,110.9,13.25,21.77,187.2
"2010-08-10 01:37:30",58096,4.421,230.2,1.215,0.046,19.97,108.4628,20.95,21.82,43.58,0,110.9,13.25,21.77,192.2
"2010-08-10 01:38:00",58097,4.464,228.2,2.691,0.074,20,108.4589,20.94,21.81,43.43,0,110.9,13.25,21.76,190.2
"2010-08-10 01:38:30",58098,4.336,225.7,1.029,0.082,20.06,108.4558,20.93,21.81,43.15,0,110.9,13.25,21.75,187.7
"2010-08-10 01:39:00",58099,4.38,226.8,0.815,0.063,19.98,108.4555,20.93,21.82,43.87,0,110.9,13.25,21.75,188.8
"2010-08-10 01:39:30",58100,4.373,228.6,1.285,0.055,19.98,108.4512,20.92,21.83,43.47,0,110.9,13.25,21.74,190.6
"2010-08-10 01:40:00",58101,4.582,230.4,0.481,0.084,19.82,108.4513,20.92,21.81,41.61,0,110.9,13.25,21.74,192.4
"2010-08-10 01:40:30",58102,4.493,230.8,0.532,0.021,19.98,108.4386,20.89,21.78,41.68,0,110.9,13.25,21.71,192.8
"2010-08-10 01:41:00",58103,4.582,228.9,1.183,0.068,19.87,108.4137,20.82,21.78,41.12,0,110.9,13.25,21.65,190.9
"2010-08-10 01:41:30",58104,5.056,229.1,3.013,0.225,19.87,108.411,20.81,21.74,40.9,0,110.9,13.25,21.64,191.1
"2010-08-10 01:42:00",58105,4.792,228,2.319,0.214,20.04,108.4088,20.81,21.73,40.61,0,110.9,13.25,21.63,190.0
"2010-08-10 01:42:30",58106,4.498,228.7,1.477,0.229,19.99,108.406,20.8,21.72,40.79,0,110.9,13.25,21.63,190.7
"2010-08-10 01:43:00",58107,4.703,228.7,1.358,0.174,19.86,108.3756,20.72,21.69,41,0,110.9,13.25,21.55,190.7
"2010-08-10 01:43:30",58108,4.507,230.4,1.749,0.126,19.89,108.3742,20.72,21.66,41.01,0,110.9,13.25,21.54,192.4
"2010-08-10 01:44:00",58109,4.685,231.2,0.84,0.057,19.89,108.3567,20.67,21.65,40.95,0,110.9,13.25,21.50,193.2
"2010-08-10 01:44:30",58110,4.888,230.7,1.309,0.114,19.91,108.3399,20.63,21.62,40.82,0,110.9,13.25,21.46,192.7
"2010-08-10 01:45:00",58111,5.237,231.1,0.586,0.055,19.82,108.3399,20.63,21.59,40.94,0,110.9,13.25,21.46,193.1
"2010-08-10 01:45:30",58112,5.247,231.9,1.4,0.08,19.83,108.3218,20.59,21.56,41.32,0,110.9,13.25,21.41,193.9
"2010-08-10 01:46:00",58113,5.273,233,0.692,0.106,19.86,108.3052,20.54,21.54,41.51,0,110.9,13.25,21.37,195.0
"2010-08-10 01:46:30",58114,5.268,233.6,0.528,0.064,19.93,108.3044,20.54,21.51,41.55,0,110.9,13.25,21.36,195.6
"2010-08-10 01:47:00",58115,5.064,235.6,0.975,0.102,19.76,108.2794,20.48,21.47,41.66,0,110.9,13.25,21.30,197.6
"2010-08-10 01:47:30",58116,5.174,238.6,2.514,0.163,19.65,108.2717,20.46,21.44,41.96,0,110.9,13.25,21.28,200.6
"2010-08-10 01:48:00",58117,5.423,240.2,1.529,0.141,19.69,108.2569,20.42,21.42,42.32,0,110.9,13.25,21.24,202.2
"2010-08-10 01:48:30",58118,5.51,241.3,1.543,0.141,19.67,108.2366,20.37,21.38,42.67,0,110.9,13.25,21.19,203.3
"2010-08-10 01:49:00",58119,5.579,240.1,1.668,0.09,19.61,108.2079,20.29,21.35,43.01,0,110.9,13.25,21.12,202.1